Regional Weather Roundup
Issued by NWS

Home | Current Version | Previous Version | Text Only | Print | Product List | Glossary On
Versions: 1 2 3 4 5 6 7 8 9 10 11 12 13 14 15 16 17 18 19 20 21 22 23 24 25 26 27 28 29 30 31 32 33 34 35 36 37 38 39 40 41 42 43 44 45 46 47 48 49 50
000
ASUS43 KTOP 240159
RWRKS

WEATHER ROUNDUP FOR KANSAS
NATIONAL WEATHER SERVICE GOODLAND KS
900 PM CDT THU MAR 23 2017

NOTE:  "FAIR" INDICATES FEW OR NO CLOUDS BELOW 12,000 FEET WITH NO
SIGNIFICANT WEATHER AND/OR OBSTRUCTIONS TO VISIBILITY.

KSZ001>006-013>018-027>032-041>047-240300-
NORTHWEST KANSAS

CITY           SKY/WX    TMP DP  RH WIND       PRES   REMARKS
GOODLAND       CLOUDY    70  37  29 S28G37    29.51R
HAYS             N/A     73  50  44 S16       29.61R
HILL CITY      LGT RAIN  61  54  77 W18G30    29.66R
RUSSELL        CLOUDY    74  48  39 S25G35    29.58R
$$

KSZ061>065-074>080-084>089-240300-
SOUTHWEST KANSAS

CITY           SKY/WX    TMP DP  RH WIND       PRES   REMARKS
DODGE CITY     CLOUDY    73  48  41 S25G36    29.62R
ELKHART          N/A     55  45  69 SE13        N/A
GREAT BEND     MOCLDY    74  48  39 S28G39    29.59S
LIBERAL        CLOUDY    64  48  55 S7G29     29.63R
$$

KSZ066>073-081>083-090>101-240300-
SOUTHEAST KANSAS

CITY           SKY/WX    TMP DP  RH WIND       PRES   REMARKS
CHANUTE        CLEAR     71  48  43 SE20      29.78F
COFFEYVILLE    PTCLDY    73  52  47 SE16G29   29.79F
HUTCHINSON     CLOUDY    75  47  36 S21G28    29.67R
MEDICINE LODGE   N/A     74  47  38 S14G23    29.64R
NEWTON         CLEAR     73  47  39 S21G28    29.69R
PARSONS        CLEAR     74  50  42 S10G23    29.80S
WICHITA INTL   MOCLDY    74  45  35 S21G29    29.69R
WICHITA JABRA  CLEAR     74  47  38 S18G30    29.69R
WINFIELD       CLEAR     73  49  42 S23G35    29.72S
$$

KSZ007>012-019>026-033>040-048>060-102>105-240300-
NORTHEAST KANSAS

CITY           SKY/WX    TMP DP  RH WIND       PRES   REMARKS
CONCORDIA      MOCLDY    71  53  52 SE9       29.64R
EMPORIA        PTCLDY    70  53  54 S23G31    29.72S
LAWRENCE       MOCLDY    71  48  43 SE17      29.76S
MANHATTAN      CLOUDY    72  51  47 S10       29.69R
OLATHE IND     CLEAR     70  46  42 S18       29.79R
OLATHE EXE     CLEAR     69  46  43 S14       29.79R
SALINA         MOCLDY    75  50  41 S14       29.65R
TOPEKA BILLARD PTCLDY    71  50  47 SE15G23   29.74R
TOPEKA FORBES  PTCLDY    72  49  44 S17G28    29.74S
$$




USA.gov is the U.S. government's official web portal to all federal, state and local government web resources and services.